星链-1217 (STARLINK-1217 )

导读 | 星芒AI

STARLINK-1217 是 SpaceX Starlink 卫星互联网项目中的一颗低轨道卫星,属于第12批发射的星链卫星之一。该卫星于2020年11月25日由猎鹰9号火箭送入近地轨道,旨在为全球用户提供高速互联网服务。STARLINK-1217 采用先进通信技术,具备高带宽和低延迟特性,支持全球范围内的宽带接入。该卫星运行在约550公里高度的轨道上,与其他星链卫星协同工作,构建全球覆盖的卫星网络。

基本信息
目录编号:
45226
目录名称:
STARLINK-1217
国际标识:
2020-012BA
轨道中心:
EARTH
卫星名称:
星链-1217
卫星全名:
星链-1217 (STARLINK-1217 )
卫星状态:
在轨 (已飞行2070 天)
发射日期:
2020-02-17 UTC
国别 :
美国 (US)
星等 :
--
轨道信息
数据来源 国际轨道数据
星历时间: 2025-10-17T15:42:54+0800
20小时前
查看轨道信息
半长轴: 6599.595km
偏心率: 0.0003742
轨道倾角: 53.033°
近地点辐角 209.633°
升交点赤经 223.486°
平近点角 150.449°
近地点: 218.99km
远地点: 223.93km
周期: 88.927分钟
每日圈数: 16.192983
详细信息
固有亮度:
5
最大亮度:
2.5
卫星平台:
Starlink V1.0
覆盖范围:
全球
运营商:
太空探索技术公司
运营商所在国:
美国
制造商(研发单位):
太空探索技术公司
制造商所在国:
美国
使用方式:
暂无
卫星简介
星链(Starlink)计划是由太空探索技术公司(SpaceX)提出的一个巨型低轨卫星互联网星座项目,计划在2019年至2024年间在太空搭建由约1.2万颗卫星组成的“星链”网络,其中1584颗将部署在地球上空550千米处的近地轨道,并从2020年开始工作。该卫星仍在工作。
2D轨道图
3D轨道图
轨道高度分析图
轨道倾角分析图
轨道综合分析图
查看轨道综合分析图